QPF
0.00 0.00 0.00 0.00 0.00 0.00 0.00 0.00 0.00 0.00 0.00 0.00 0.00 0.00 0.00 0.00 0.00 0.00 0.00 0.00 0.00 0.00 0.00 0.00 0.00 0.00 0.00 0.00 0.00 0.00 0.01 0.01 0.01 0.00 0.00 0.00 0.00 0.00 0.00 0.00 0.00 0.00 0.00
0.00 0.00 0.00 0.00 0.00 0.00 0.00 0.00 0.00 0.00 0.00 0.00 0.00 0.00 0.00 0.00 0.00 0.00 0.00 0.00 0.00 0.00 0.00 0.00 0.00 0.00 0.00 0.00 0.00 0.00 0.01 0.01 0.01 0.00 0.00 0.00 0.00 0.00 0.00 0.00 0.00 0.00 0.00
0.00 0.00 0.00 0.00 0.00 0.00 0.00 0.00 0.00 0.00 0.00 0.00 0.00 0.00 0.00 0.00 0.00 0.00 0.00 0.00 0.00 0.00 0.00 0.00 0.00 0.00 0.00 0.00 0.00 0.00 0.00 0.00 0.00 0.00 0.00 0.00 0.00 0.00 0.00 0.00 0.00 0.00 0.00
0.00 0.00 0.00 0.00 0.00 0.00 0.00 0.00 0.00 0.00 0.00 0.00 0.00 0.00 0.00 0.00 0.00 0.00 0.00 0.00 0.00 0.00 0.00 0.00 0.00 0.00 0.00 0.00 0.00 0.00 0.00 0.00 0.00 0.00 0.00 0.00 0.00 0.00 0.00 0.00 0.00 0.00 0.00
0.00 0.00 0.00 0.00 0.00 0.00 0.00 0.00 0.00 0.00 0.00 0.00 0.00 0.00 0.00 0.00 0.00 0.00 0.00 0.00 0.00 0.00 0.00 0.00 0.00 0.00 0.00 0.00 0.00 0.00 0.00 0.00 0.00 0.00 0.00 0.00 0.00 0.01 0.00 0.00 0.00 0.00 0.00
0.02 0.01 0.00 0.00 0.00 0.00 0.00 0.00 0.00 0.00 0.00 0.00 0.00 0.00 0.00 0.00 0.00 0.00 0.00 0.00 0.00 0.00 0.00 0.00 0.00 0.00 0.00 0.00 0.00 0.00 0.00 0.00 0.00 0.00 0.00 0.00 0.01 0.01 0.01 0.01 0.01 0.00 0.00
0.02 0.03 0.02 0.01 0.01 0.00 0.00 0.00 0.00 0.00 0.00 0.00 0.00 0.00 0.00 0.00 0.00 0.00 0.00 0.00 0.00 0.00 0.00 0.00 0.00 0.00 0.00 0.00 0.00 0.00 0.00 0.00 0.00 0.00 0.00 0.00 0.01 0.01 0.02 0.02 0.02 0.02 0.01
0.02 0.03 0.03 0.03 0.02 0.01 0.01 0.01 0.00 0.00 0.00 0.00 0.00 0.00 0.00 0.00 0.00 0.00 0.00 0.00 0.00 0.00 0.00 0.00 0.00 0.00 0.00 0.00 0.00 0.00 0.00 0.00 0.00 0.00 0.00 0.00 0.01 0.01 0.03 0.02 0.03 0.02 0.01
0.02 0.02 0.02 0.02 0.02 0.01 0.01 0.01 0.01 0.01 0.01 0.00 0.00 0.00 0.00 0.00 0.00 0.00 0.00 0.00 0.00 0.00 0.00 0.00 0.00 0.00 0.00 0.00 0.00 0.00 0.00 0.00 0.00 0.00 0.00 0.00 0.00 0.00 0.01 0.01 0.02 0.02 0.01
0.02 0.02 0.02 0.02 0.01 0.01 0.01 0.01 0.01 0.01 0.00 0.00 0.00 0.00 0.00 0.00 0.01 0.01 0.01 0.00 0.00 0.00 0.00 0.00 0.00 0.00 0.00 0.00 0.00 0.01 0.00 0.01 0.01 0.01 0.01 0.00 0.00 0.00 0.00 0.00 0.01 0.02 0.02
0.02 0.02 0.02 0.01 0.01 0.01 0.01 0.01 0.01 0.01 0.01 0.01 0.00 0.00 0.01 0.01 0.01 0.01 0.00 0.00 0.00 0.00 0.00 0.00 0.00 0.00 0.00 0.00 0.00 0.00 0.00 0.01 0.01 0.01 0.01 0.01 0.01 0.01 0.01 0.01 0.01 0.02 0.02
0.03 0.02 0.02 0.02 0.02 0.01 0.01 0.01 0.01 0.01 0.01 0.01 0.01 0.01 0.01 0.01 0.00 0.01 0.01 0.00 0.00 0.00 0.00 0.00 0.00 0.00 0.00 0.00 0.00 0.00 0.00 0.00 0.00 0.01 0.01 0.01 0.01 0.00 0.00 0.01 0.01 0.02 0.01
0.02 0.02 0.02 0.02 0.02 0.02 0.01 0.01 0.01 0.01 0.01 0.01 0.01 0.01 0.01 0.01 0.01 0.01 0.01 0.01 0.01 0.01 0.00 0.00 0.00 0.00 0.00 0.00 0.00 0.00 0.00 0.00 0.00 0.00 0.01 0.01 0.00 0.00 0.00 0.01 0.01 0.01 0.01
0.02 0.02 0.02 0.02 0.02 0.02 0.01 0.01 0.01 0.01 0.02 0.02 0.02 0.02 0.02 0.02 0.01 0.02 0.02 0.02 0.01 0.01 0.01 0.01 0.01 0.01 0.01 0.01 0.01 0.00 0.00 0.00 0.00 0.01 0.01 0.01 0.00 0.01 0.01 0.01 0.01 0.01 0.01
0.03 0.03 0.03 0.03 0.03 0.02 0.02 0.02 0.02 0.02 0.02 0.02 0.02 0.02 0.02 0.02 0.03 0.03 0.02 0.02 0.02 0.01 0.01 0.01 0.01 0.01 0.01 0.01 0.02 0.02 0.02 0.02 0.01 0.01 0.01 0.02 0.01 0.01 0.01 0.01 0.02 0.01 0.01
0.04 0.04 0.05 0.05 0.05 0.04 0.04 0.03 0.03 0.02 0.02 0.02 0.02 0.01 0.01 0.01 0.01 0.01 0.01 0.01 0.01 0.00 0.00 0.00 0.01 0.01 0.02 0.02 0.03 0.03 0.03 0.03 0.04 0.04 0.04 0.03 0.02 0.02 0.02 0.02 0.03 0.02 0.02
0.02 0.02 0.02 0.03 0.03 0.04 0.04 0.04 0.03 0.03 0.02 0.02 0.01 0.01 0.01 0.01 0.00 0.00 0.00 0.00 0.00 0.00 0.00 0.01 0.01 0.02 0.02 0.02 0.02 0.02 0.02 0.03 0.05 0.05 0.05 0.04 0.03 0.03 0.03 0.03 0.03 0.03 0.02
0.00 0.01 0.01 0.01 0.00 0.00 0.01 0.01 0.01 0.01 0.01 0.01 0.01 0.00 0.00 0.00 0.00 0.00 0.00 0.00 0.00 0.01 0.01 0.01 0.02 0.02 0.03 0.03 0.04 0.04 0.04 0.04 0.06 0.06 0.05 0.05 0.05 0.05 0.04 0.03 0.03 0.03 0.03
0.00 0.00 0.00 0.00 0.00 0.00 0.00 0.00 0.01 0.00 0.00 0.00 0.00 0.00 0.00 0.00 0.00 0.00 0.00 0.01 0.01 0.01 0.01 0.01 0.02 0.02 0.02 0.03 0.04 0.04 0.04 0.05 0.06 0.07 0.07 0.07 0.07 0.06 0.05 0.04 0.03 0.03 0.03
0.00 0.00 0.00 0.00 0.00 0.00 0.00 0.00 0.00 0.00 0.00 0.00 0.00 0.00 0.00 0.00 0.01 0.01 0.01 0.01 0.02 0.02 0.02 0.03 0.03 0.03 0.03 0.03 0.04 0.05 0.05 0.05 0.06 0.08 0.08 0.07 0.07 0.07 0.05 0.05 0.05 0.06 0.06
0.00 0.00 0.00 0.00 0.00 0.00 0.00 0.00 0.00 0.00 0.00 0.00 0.00 0.01 0.00 0.00 0.01 0.02 0.02 0.02 0.03 0.03 0.03 0.03 0.03 0.04 0.04 0.05 0.06 0.06 0.06 0.06 0.07 0.08 0.08 0.08 0.08 0.07 0.06 0.05 0.05 0.07 0.07
0.00 0.00 0.00 0.00 0.00 0.00 0.00 0.00 0.00 0.00 0.00 0.00 0.01 0.01 0.01 0.01 0.02 0.02 0.03 0.03 0.03 0.04 0.04 0.05 0.06 0.06 0.07 0.08 0.09 0.09 0.09 0.10 0.10 0.10 0.09 0.09 0.08 0.08 0.07 0.06 0.06 0.06 0.07
0.00 0.00 0.00 0.00 0.00 0.00 0.00 0.00 0.00 0.00 0.01 0.01 0.01 0.01 0.01 0.02 0.02 0.03 0.03 0.03 0.04 0.05 0.06 0.08 0.09 0.10 0.11 0.12 0.12 0.12 0.11 0.11 0.12 0.12 0.11 0.10 0.10 0.10 0.09 0.09 0.08 0.08 0.08
0.00 0.00 0.00 0.00 0.00 0.00 0.00 0.00 0.01 0.01 0.01 0.01 0.01 0.01 0.02 0.03 0.03 0.02 0.02 0.04 0.06 0.07 0.06 0.07 0.09 0.10 0.12 0.12 0.11 0.09 0.09 0.08 0.08 0.08 0.08 0.09 0.09 0.09 0.08 0.08 0.09 0.08 0.09
0.00 0.00 0.00 0.00 0.00 0.01 0.01 0.01 0.02 0.02 0.02 0.01 0.02 0.02 0.03 0.03 0.03 0.03 0.03 0.05 0.07 0.09 0.09 0.10 0.11 0.10 0.09 0.09 0.10 0.09 0.09 0.07 0.05 0.05 0.05 0.06 0.06 0.06 0.07 0.07 0.08 0.08 0.08
0.00 0.00 0.00 0.00 0.01 0.01 0.01 0.01 0.01 0.01 0.01 0.01 0.01 0.02 0.02 0.03 0.03 0.03 0.05 0.06 0.06 0.07 0.09 0.10 0.10 0.10 0.10 0.10 0.10 0.10 0.08 0.06 0.04 0.04 0.04 0.05 0.05 0.05 0.06 0.06 0.06 0.07 0.07
MSLP
1014.40 1014.88 1015.33 1015.73 1016.08 1016.39 1016.66 1016.91 1017.15 1017.41 1017.67 1017.94 1018.20 1018.46 1018.68 1018.87 1019.03 1019.15 1019.24 1019.32 1019.39 1019.45 1019.52 1019.58 1019.63 1019.66 1019.66 1019.62 1019.53 1019.40 1019.23 1019.02 1018.80 1018.56 1018.32 1018.09 1017.87 1017.67 1017.49 1017.34 1017.21 1017.10 1017.02
1013.84 1014.32 1014.78 1015.20 1015.58 1015.93 1016.24 1016.54 1016.83 1017.12 1017.41 1017.70 1017.97 1018.23 1018.45 1018.64 1018.80 1018.92 1019.01 1019.10 1019.17 1019.24 1019.30 1019.36 1019.40 1019.42 1019.41 1019.37 1019.29 1019.17 1019.01 1018.82 1018.61 1018.39 1018.15 1017.91 1017.68 1017.45 1017.24 1017.04 1016.87 1016.72 1016.60
1013.23 1013.71 1014.18 1014.62 1015.03 1015.41 1015.77 1016.11 1016.45 1016.78 1017.10 1017.41 1017.70 1017.96 1018.19 1018.38 1018.54 1018.66 1018.75 1018.83 1018.90 1018.96 1019.01 1019.06 1019.09 1019.10 1019.09 1019.05 1018.98 1018.88 1018.75 1018.59 1018.41 1018.21 1017.99 1017.76 1017.51 1017.26 1017.01 1016.77 1016.54 1016.34 1016.17
1012.58 1013.08 1013.55 1014.00 1014.43 1014.84 1015.23 1015.61 1015.99 1016.35 1016.70 1017.03 1017.34 1017.62 1017.85 1018.04 1018.20 1018.32 1018.41 1018.49 1018.54 1018.59 1018.63 1018.66 1018.68 1018.69 1018.68 1018.66 1018.61 1018.55 1018.46 1018.35 1018.21 1018.05 1017.86 1017.63 1017.39 1017.12 1016.83 1016.54 1016.26 1016.00 1015.76
1011.93 1012.42 1012.90 1013.36 1013.80 1014.22 1014.63 1015.03 1015.43 1015.82 1016.19 1016.54 1016.86 1017.15 1017.39 1017.60 1017.75 1017.88 1017.97 1018.03 1018.08 1018.12 1018.14 1018.17 1018.18 1018.19 1018.20 1018.20 1018.19 1018.17 1018.14 1018.08 1018.00 1017.89 1017.73 1017.53 1017.29 1017.01 1016.70 1016.37 1016.03 1015.70 1015.39
1011.31 1011.78 1012.24 1012.69 1013.13 1013.55 1013.97 1014.38 1014.79 1015.18 1015.57 1015.93 1016.26 1016.56 1016.81 1017.02 1017.19 1017.32 1017.41 1017.47 1017.52 1017.55 1017.57 1017.58 1017.60 1017.62 1017.64 1017.67 1017.70 1017.73 1017.76 1017.76 1017.74 1017.68 1017.57 1017.40 1017.17 1016.89 1016.57 1016.20 1015.82 1015.43 1015.06
1010.75 1011.19 1011.62 1012.05 1012.47 1012.88 1013.29 1013.69 1014.09 1014.49 1014.87 1015.24 1015.57 1015.87 1016.14 1016.35 1016.53 1016.67 1016.77 1016.84 1016.88 1016.91 1016.93 1016.95 1016.96 1016.99 1017.03 1017.09 1017.15 1017.23 1017.30 1017.35 1017.38 1017.37 1017.29 1017.16 1016.95 1016.68 1016.36 1015.98 1015.58 1015.16 1014.74
1010.31 1010.70 1011.10 1011.49 1011.88 1012.27 1012.66 1013.04 1013.42 1013.80 1014.17 1014.53 1014.86 1015.16 1015.43 1015.65 1015.84 1016.00 1016.11 1016.19 1016.24 1016.27 1016.29 1016.30 1016.32 1016.34 1016.39 1016.45 1016.53 1016.62 1016.72 1016.81 1016.86 1016.88 1016.84 1016.73 1016.55 1016.30 1015.99 1015.63 1015.23 1014.81 1014.40
1010.05 1010.39 1010.74 1011.10 1011.45 1011.81 1012.16 1012.51 1012.87 1013.22 1013.56 1013.89 1014.21 1014.51 1014.77 1015.01 1015.21 1015.38 1015.50 1015.59 1015.65 1015.68 1015.69 1015.69 1015.68 1015.69 1015.71 1015.76 1015.83 1015.91 1016.00 1016.08 1016.15 1016.17 1016.14 1016.05 1015.89 1015.67 1015.40 1015.08 1014.72 1014.35 1013.97
1010.03 1010.31 1010.61 1010.92 1011.24 1011.56 1011.87 1012.19 1012.50 1012.81 1013.12 1013.42 1013.72 1013.99 1014.25 1014.49 1014.70 1014.87 1015.01 1015.10 1015.15 1015.17 1015.16 1015.12 1015.08 1015.04 1015.01 1015.01 1015.03 1015.06 1015.12 1015.17 1015.21 1015.22 1015.18 1015.10 1014.97 1014.79 1014.56 1014.30 1014.02 1013.72 1013.42
1010.26 1010.49 1010.75 1011.02 1011.29 1011.56 1011.83 1012.10 1012.37 1012.63 1012.89 1013.15 1013.41 1013.67 1013.91 1014.14 1014.34 1014.51 1014.64 1014.72 1014.76 1014.74 1014.69 1014.60 1014.49 1014.37 1014.27 1014.18 1014.12 1014.08 1014.07 1014.06 1014.05 1014.03 1013.99 1013.91 1013.81 1013.66 1013.50 1013.31 1013.12 1012.92 1012.73
1010.73 1010.91 1011.13 1011.36 1011.59 1011.82 1012.04 1012.25 1012.46 1012.66 1012.87 1013.08 1013.29 1013.51 1013.73 1013.93 1014.12 1014.27 1014.38 1014.43 1014.43 1014.36 1014.24 1014.07 1013.86 1013.65 1013.44 1013.25 1013.08 1012.96 1012.86 1012.78 1012.73 1012.67 1012.61 1012.54 1012.46 1012.36 1012.26 1012.15 1012.06 1011.96 1011.88
1011.37 1011.52 1011.70 1011.88 1012.07 1012.24 1012.40 1012.55 1012.70 1012.84 1012.98 1013.13 1013.29 1013.47 1013.64 1013.81 1013.97 1014.08 1014.15 1014.16 1014.09 1013.95 1013.73 1013.46 1013.15 1012.82 1012.50 1012.19 1011.92 1011.70 1011.52 1011.38 1011.28 1011.20 1011.13 1011.07 1011.02 1010.97 1010.93 1010.90 1010.88 1010.89 1010.90
1012.09 1012.21 1012.34 1012.48 1012.60 1012.72 1012.81 1012.90 1012.97 1013.04 1013.11 1013.20 1013.31 1013.43 1013.55 1013.68 1013.79 1013.85 1013.86 1013.80 1013.65 1013.42 1013.11 1012.72 1012.30 1011.85 1011.41 1010.99 1010.63 1010.33 1010.08 1009.90 1009.77 1009.69 1009.63 1009.60 1009.58 1009.57 1009.58 1009.62 1009.67 1009.75 1009.84
1012.78 1012.85 1012.93 1013.01 1013.07 1013.11 1013.14 1013.14 1013.14 1013.14 1013.15 1013.18 1013.22 1013.28 1013.36 1013.43 1013.47 1013.48 1013.42 1013.28 1013.04 1012.71 1012.29 1011.80 1011.26 1010.70 1010.16 1009.67 1009.23 1008.87 1008.60 1008.40 1008.28 1008.21 1008.18 1008.18 1008.21 1008.25 1008.31 1008.38 1008.48 1008.60 1008.73
1013.31 1013.33 1013.34 1013.34 1013.33 1013.30 1013.24 1013.18 1013.11 1013.05 1012.99 1012.96 1012.95 1012.95 1012.97 1012.98 1012.96 1012.89 1012.75 1012.52 1012.19 1011.76 1011.24 1010.66 1010.03 1009.40 1008.79 1008.24 1007.77 1007.39 1007.12 1006.94 1006.84 1006.81 1006.83 1006.89 1006.96 1007.04 1007.14 1007.24 1007.36 1007.49 1007.64
1013.60 1013.55 1013.49 1013.41 1013.32 1013.21 1013.09 1012.96 1012.83 1012.71 1012.61 1012.52 1012.46 1012.42 1012.37 1012.32 1012.23 1012.09 1011.87 1011.55 1011.13 1010.62 1010.01 1009.35 1008.66 1007.98 1007.33 1006.76 1006.29 1005.93 1005.69 1005.55 1005.51 1005.54 1005.62 1005.72 1005.84 1005.97 1006.09 1006.21 1006.33 1006.45 1006.59
1013.63 1013.50 1013.35 1013.19 1013.02 1012.85 1012.67 1012.50 1012.33 1012.17 1012.04 1011.92 1011.81 1011.72 1011.62 1011.50 1011.34 1011.12 1010.81 1010.41 1009.92 1009.33 1008.66 1007.95 1007.23 1006.52 1005.88 1005.32 1004.88 1004.56 1004.36 1004.29 1004.30 1004.39 1004.53 1004.69 1004.85 1005.00 1005.14 1005.27 1005.38 1005.49 1005.61
1013.42 1013.21 1012.98 1012.75 1012.52 1012.30 1012.09 1011.89 1011.70 1011.53 1011.38 1011.23 1011.10 1010.96 1010.81 1010.62 1010.38 1010.08 1009.69 1009.21 1008.64 1008.00 1007.29 1006.56 1005.83 1005.13 1004.51 1003.99 1003.60 1003.33 1003.20 1003.17 1003.25 1003.39 1003.57 1003.77 1003.96 1004.13 1004.28 1004.40 1004.51 1004.60 1004.70
1013.04 1012.75 1012.46 1012.18 1011.92 1011.68 1011.46 1011.26 1011.08 1010.92 1010.76 1010.61 1010.45 1010.26 1010.05 1009.79 1009.47 1009.08 1008.61 1008.05 1007.42 1006.74 1006.01 1005.27 1004.55 1003.89 1003.32 1002.85 1002.51 1002.30 1002.22 1002.24 1002.36 1002.53 1002.73 1002.95 1003.15 1003.32 1003.47 1003.59 1003.68 1003.77 1003.86
1012.59 1012.25 1011.93 1011.63 1011.36 1011.13 1010.93 1010.76 1010.60 1010.46 1010.31 1010.15 1009.97 1009.74 1009.46 1009.12 1008.71 1008.22 1007.66 1007.04 1006.36 1005.64 1004.90 1004.18 1003.50 1002.88 1002.36 1001.95 1001.67 1001.51 1001.47 1001.52 1001.64 1001.82 1002.02 1002.23 1002.42 1002.58 1002.72 1002.82 1002.91 1003.00 1003.08
1012.19 1011.83 1011.50 1011.20 1010.96 1010.76 1010.61 1010.48 1010.37 1010.26 1010.12 1009.95 1009.73 1009.45 1009.09 1008.66 1008.16 1007.58 1006.93 1006.24 1005.51 1004.76 1004.03 1003.33 1002.70 1002.14 1001.68 1001.33 1001.10 1000.98 1000.95 1001.01 1001.12 1001.28 1001.45 1001.62 1001.78 1001.91 1002.03 1002.12 1002.20 1002.28 1002.37
1011.94 1011.59 1011.27 1011.01 1010.81 1010.67 1010.57 1010.49 1010.42 1010.34 1010.21 1010.03 1009.77 1009.42 1008.98 1008.46 1007.85 1007.17 1006.45 1005.68 1004.91 1004.15 1003.43 1002.77 1002.18 1001.68 1001.28 1001.00 1000.80 1000.70 1000.68 1000.72 1000.81 1000.92 1001.04 1001.15 1001.26 1001.35 1001.43 1001.50 1001.57 1001.65 1001.73
1011.91 1011.58 1011.30 1011.08 1010.93 1010.84 1010.79 1010.77 1010.73 1010.67 1010.54 1010.33 1010.02 1009.60 1009.08 1008.46 1007.75 1006.99 1006.18 1005.36 1004.56 1003.79 1003.09 1002.47 1001.93 1001.49 1001.16 1000.91 1000.75 1000.67 1000.64 1000.65 1000.68 1000.73 1000.78 1000.83 1000.88 1000.91 1000.95 1000.99 1001.04 1001.10 1001.18
1012.11 1011.81 1011.57 1011.40 1011.29 1011.24 1011.23 1011.23 1011.21 1011.15 1011.00 1010.76 1010.39 1009.91 1009.30 1008.60 1007.81 1006.96 1006.10 1005.24 1004.42 1003.66 1002.98 1002.40 1001.92 1001.54 1001.25 1001.05 1000.92 1000.83 1000.78 1000.75 1000.73 1000.71 1000.69 1000.66 1000.63 1000.61 1000.60 1000.60 1000.61 1000.65 1000.70
1012.52 1012.25 1012.04 1011.89 1011.81 1011.78 1011.78 1011.78 1011.76 1011.67 1011.50 1011.21 1010.79 1010.24 1009.57 1008.80 1007.95 1007.06 1006.15 1005.27 1004.45 1003.71 1003.07 1002.53 1002.11 1001.78 1001.54 1001.36 1001.24 1001.15 1001.08 1001.00 1000.92 1000.83 1000.72 1000.62 1000.51 1000.42 1000.34 1000.29 1000.26 1000.26 1000.27
Thickness
5741 5738 5735 5732 5730 5727 5724 5722 5720 5717 5714 5712 5709 5707 5704 5701 5697 5694 5694 5691 5687 5685 5683 5680 5677 5675 5675 5674 5672 5669 5667 5664 5661 5664 5666 5665 5660 5658 5659 5659 5660 5661 5664
5743 5739 5735 5732 5730 5727 5724 5722 5719 5716 5713 5710 5708 5705 5702 5700 5696 5693 5690 5688 5685 5682 5680 5678 5675 5674 5670 5668 5666 5665 5663 5660 5656 5655 5657 5658 5656 5655 5653 5652 5655 5658 5658
5745 5740 5736 5732 5729 5726 5724 5721 5718 5715 5712 5709 5705 5702 5700 5697 5694 5691 5688 5685 5683 5680 5678 5675 5672 5669 5665 5665 5661 5660 5660 5658 5655 5652 5652 5653 5652 5651 5649 5649 5650 5649 5650
5747 5741 5736 5733 5730 5727 5723 5720 5717 5714 5710 5707 5703 5700 5697 5694 5691 5689 5685 5682 5679 5677 5674 5671 5669 5666 5662 5659 5657 5654 5652 5651 5650 5648 5648 5649 5647 5647 5644 5643 5644 5646 5646
5746 5742 5738 5734 5730 5725 5721 5718 5715 5711 5708 5704 5701 5697 5694 5692 5690 5686 5682 5679 5675 5673 5671 5668 5666 5663 5659 5655 5653 5652 5648 5646 5645 5645 5644 5643 5642 5639 5638 5638 5637 5637 5639
5743 5740 5738 5733 5727 5723 5719 5715 5711 5708 5705 5701 5698 5694 5692 5690 5686 5680 5676 5675 5672 5669 5667 5665 5663 5658 5654 5648 5645 5642 5639 5638 5639 5637 5637 5635 5633 5632 5631 5629 5628 5629 5629
5740 5737 5734 5730 5725 5720 5717 5712 5708 5704 5701 5697 5694 5691 5688 5685 5680 5674 5668 5666 5667 5666 5663 5660 5659 5660 5653 5650 5644 5637 5634 5630 5628 5628 5629 5627 5627 5626 5623 5621 5620 5619 5619
5735 5732 5729 5725 5721 5716 5712 5708 5704 5701 5697 5693 5690 5688 5684 5681 5675 5669 5663 5660 5661 5661 5659 5657 5654 5652 5651 5646 5643 5640 5637 5634 5629 5623 5623 5622 5621 5619 5616 5613 5611 5611 5612
5730 5727 5724 5720 5716 5711 5706 5702 5699 5695 5692 5689 5686 5683 5679 5676 5670 5664 5657 5657 5658 5657 5656 5655 5652 5649 5646 5639 5635 5633 5632 5632 5629 5625 5621 5618 5614 5610 5606 5605 5606 5605 5608
5723 5720 5717 5713 5708 5704 5700 5696 5693 5689 5686 5683 5681 5678 5675 5671 5666 5658 5651 5653 5654 5654 5654 5652 5648 5644 5641 5634 5630 5628 5627 5627 5625 5623 5617 5613 5609 5606 5602 5598 5599 5600 5603
5714 5711 5708 5703 5698 5695 5691 5687 5684 5681 5678 5675 5673 5671 5668 5665 5660 5653 5646 5645 5647 5648 5648 5649 5649 5643 5634 5628 5623 5623 5623 5620 5618 5616 5614 5613 5610 5607 5604 5600 5597 5595 5597
5700 5698 5695 5692 5690 5686 5681 5678 5675 5671 5668 5667 5664 5662 5661 5658 5653 5648 5641 5636 5635 5636 5638 5640 5640 5634 5628 5622 5618 5617 5613 5607 5608 5609 5610 5609 5608 5606 5605 5601 5598 5594 5591
5685 5683 5681 5680 5677 5675 5671 5668 5664 5661 5660 5659 5657 5655 5654 5652 5647 5640 5635 5629 5625 5623 5628 5628 5624 5619 5615 5613 5610 5608 5603 5600 5601 5603 5605 5605 5604 5603 5600 5595 5591 5588 5585
5669 5669 5669 5668 5665 5663 5659 5658 5656 5654 5652 5650 5647 5645 5643 5640 5637 5634 5629 5624 5617 5614 5615 5616 5612 5609 5606 5604 5605 5602 5599 5600 5600 5600 5601 5601 5599 5597 5593 5590 5586 5584 5582
5656 5656 5656 5656 5653 5649 5647 5644 5643 5640 5638 5634 5633 5631 5628 5625 5622 5614 5610 5610 5608 5605 5601 5602 5605 5606 5606 5605 5604 5603 5601 5599 5595 5593 5594 5593 5592 5590 5587 5585 5581 5578 5576
5644 5644 5644 5643 5640 5639 5636 5633 5628 5624 5621 5617 5613 5610 5610 5606 5602 5597 5593 5589 5585 5581 5580 5589 5594 5596 5597 5598 5597 5597 5596 5593 5591 5589 5586 5585 5584 5583 5581 5579 5575 5572 5570
5630 5630 5630 5628 5626 5624 5622 5619 5617 5614 5609 5605 5601 5597 5593 5590 5586 5582 5578 5575 5572 5567 5570 5579 5583 5585 5586 5586 5586 5586 5586 5586 5585 5581 5579 5578 5578 5576 5574 5572 5569 5566 5565
5617 5615 5613 5612 5611 5610 5607 5605 5603 5601 5599 5598 5593 5587 5582 5577 5573 5569 5565 5561 5568 5566 5568 5571 5572 5573 5573 5573 5574 5574 5574 5574 5573 5572 5571 5571 5570 5569 5567 5566 5565 5563 5561
5605 5604 5601 5599 5598 5597 5595 5593 5591 5588 5585 5584 5582 5579 5572 5568 5562 5558 5553 5555 5560 5560 5559 5559 5559 5560 5560 5559 5560 5560 5560 5560 5561 5561 5561 5561 5561 5560 5560 5561 5561 5558 5554
5592 5587 5584 5585 5586 5584 5582 5579 5576 5573 5570 5568 5566 5563 5561 5556 5555 5552 5548 5547 5546 5546 5546 5545 5545 5545 5545 5545 5545 5545 5547 5548 5548 5549 5551 5552 5552 5553 5554 5555 5555 5554 5553
5582 5580 5573 5573 5573 5570 5567 5563 5560 5556 5554 5552 5549 5547 5537 5537 5538 5537 5535 5533 5532 5532 5531 5531 5531 5532 5533 5533 5533 5534 5535 5537 5538 5540 5542 5544 5545 5546 5548 5548 5548 5548 5548
5568 5567 5565 5562 5558 5555 5551 5547 5544 5542 5539 5537 5535 5533 5526 5524 5524 5523 5521 5520 5519 5518 5518 5518 5520 5522 5523 5523 5523 5524 5526 5528 5531 5533 5535 5537 5538 5540 5541 5542 5543 5543 5544
5554 5553 5551 5548 5544 5539 5536 5534 5531 5528 5525 5522 5520 5517 5515 5512 5510 5508 5507 5506 5505 5505 5506 5507 5509 5511 5513 5514 5516 5516 5518 5521 5524 5526 5528 5531 5533 5534 5535 5537 5538 5539 5540
5540 5539 5537 5534 5531 5527 5523 5520 5516 5513 5511 5508 5505 5503 5501 5500 5498 5497 5495 5494 5494 5495 5496 5497 5499 5501 5503 5506 5508 5510 5513 5514 5517 5520 5523 5525 5527 5529 5531 5532 5534 5535 5536
5527 5525 5522 5519 5516 5513 5509 5505 5502 5500 5497 5495 5493 5491 5489 5488 5488 5487 5486 5486 5486 5486 5488 5489 5491 5493 5496 5498 5501 5504 5504 5506 5508 5512 5516 5520 5523 5525 5527 5529 5530 5531 5532
5513 5511 5508 5505 5503 5499 5495 5492 5489 5487 5485 5483 5481 5480 5479 5478 5478 5477 5478 5478 5479 5480 5482 5483 5485 5487 5490 5494 5496 5497 5499 5501 5503 5505 5508 5514 5517 5520 5523 5525 5526 5527 5528